Weather in Carnikava

Latvia     57°07′38″N   24°16′49″E
temp.,
°C
wind,
m/s
gust,
m/s
humid.,
%
clouds,
%
prec.,
mm/h
press.,
hPa
HPBL,
m
22 april, thu
thu2200:00+5ssw5574100 0.0 100344
03:00+5ssw710825 0.0 1003144
06:00+4ssw711796 0.0 1004236
09:00+5ssw8117695 0.0 1005223
12:00+6s68605 0.0 100571
15:00+6sw6106998 0.1 100590
18:00+6sw710656 0.3 1004118
21:00+5sw57736 0.3 100491
23 april, fri
fri2300:00+3ssw71084100 0.1 1004513
03:00+2ssw91397100 1.1 1003743
06:00+2sw6899100 2.8 1002451
09:00+2nw91098100 3.1 1004587
12:00+3w121487100 0.3 1006990
15:00+2wnw141695100 1.3 1009925
18:00+3wnw11138497 0.2 1011985
21:00+3wnw111280100 0.4 10121145
24 april, sat
sat2400:00+3wnw121479100 0.3 10121171
03:00+2wnw141797100 1.1 10101110
06:00+3wnw141685100 1.0 10101330
09:00+2wnw121489100 1.6 10101125
12:00+2wnw121480100 0.6 10111157
15:00+3w131679100 0.6 10101114
18:00+3wnw131594100 2.1 1010900
21:00+3nw131489100 2.3 1010718
25 april, sun
sun2500:00+2nw131497100 0.2 1011778
03:00+2nw121383100 0.6 10111178
06:00+2wnw121497100 0.8 1010933
09:00+2w1214100100 2.9 1009709
12:00+3nw8982100 1.3 1009847
15:00+3nw101288100 1.6 1010746
18:00+2wnw111497100 1.2 1011882
21:00+3wnw111280100 1.6 10111091
26 april, mon
mon2600:00+2w101090100 0.6 1011794
03:00+1sw779399 1.1 1010506
06:00+1s4486100 0.1 1010540
09:00+1ese2382100 0.2 1010513
12:00+1ne2278100 0.1 1012398
15:00+2nnw327685 0.1 1013223
18:00+3nw337593 0.0 1013328
21:00+3nw33785 0.0 101379